| time (UTC) | temp C | wind direction | speed KPH | gust KPH | rain 1hr cm | rain 24hr cm | rain mn cm | humidity % | barometer mb |
| 20260510103008 | 13 | 245 | 0.0 | 3.2 | 0.00 | 0.00 | 0.00 | 75 | 1011.6 |
| 20260510102006 | 13 | 271 | 1.6 | 16.1 | 0.00 | 0.00 | 0.00 | 76 | 1011.9 |
| 20260510101006 | 13 | 287 | 1.6 | 11.3 | 0.00 | 0.00 | 0.00 | 76 | 1012.0 |
| 20260510100007 | 13 | 239 | 0.0 | 4.8 | 0.00 | 0.00 | 0.00 | 76 | 1012.0 |
| 20260510095005 | 13 | 221 | 0.0 | 3.2 | 0.00 | 0.00 | 0.00 | 75 | 1012.1 |
| 20260510094005 | 12 | 209 | 0.0 | 1.6 | 0.00 | 0.00 | 0.00 | 74 | 1012.1 |
| 20260510093009 | 12 | 221 | 0.0 | 1.6 | 0.00 | 0.00 | 0.00 | 77 | 1012.4 |
| 20260510092006 | 12 | 208 | 0.0 | 1.6 | 0.00 | 0.00 | 0.00 | 77 | 1012.4 |
| 20260510091005 | 12 | 195 | 0.0 | 1.6 | 0.00 | 0.00 | 0.00 | 77 | 1012.5 |
| 20260510090007 | 12 | 202 | 0.0 | 1.6 | 0.00 | 0.00 | 0.00 | 77 | 1012.6 |
| 20260510085005 | 12 | 203 | 0.0 | 0.0 | 0.00 | 0.00 | 0.00 | 78 | 1012.7 |
| 20260510084005 | 12 | 169 | 0.0 | 1.6 | 0.00 | 0.00 | 0.00 | 78 | 1012.7 |
| 20260510083007 | 12 | 176 | 0.0 | 4.8 | 0.00 | 0.00 | 0.00 | 79 | 1012.8 |
| 20260510082005 | 12 | 156 | 1.6 | 4.8 | 0.00 | 0.00 | 0.00 | 80 | 1012.6 |
| 20260510081005 | 11 | 150 | 0.0 | 1.6 | 0.00 | 0.00 | 0.00 | 81 | 1012.6 |
| 20260510080008 | 11 | 146 | 0.0 | 1.6 | 0.00 | 0.00 | 0.00 | 82 | 1012.7 |
| 20260510075005 | 11 | 146 | 0.0 | 3.2 | 0.00 | 0.00 | 0.00 | 84 | 1012.6 |
| 20260510074006 | 11 | 147 | 0.0 | 4.8 | 0.00 | 0.00 | 0.00 | 85 | 1012.6 |
| 20260510073008 | 11 | 134 | 0.0 | 3.2 | 0.00 | 0.00 | 0.00 | 87 | 1012.7 |
| 20260510072006 | 10 | 141 | 0.0 | 0.0 | 0.00 | 0.00 | 0.00 | 88 | 1012.9 |
| 20260510071006 | 10 | 141 | 0.0 | 0.0 | 0.00 | 0.00 | 0.00 | 89 | 1013.0 |
| 20260510070007 | 10 | 141 | 0.0 | 0.0 | 0.00 | 0.00 | 0.00 | 89 | 1013.0 |
| 20260510065006 | 9 | 141 | 0.0 | 1.6 | 0.00 | 0.00 | 0.00 | 90 | 1013.0 |
| 20260510064005 | 9 | 140 | 0.0 | 0.0 | 0.00 | 0.00 | 0.00 | 90 | 1013.0 |
| 20260510063008 | 9 | 136 | 0.0 | 1.6 | 0.00 | 0.00 | 0.00 | 90 | 1013.1 |
| 20260510062007 | 8 | 136 | 0.0 | 0.0 | 0.00 | 0.00 | 0.00 | 90 | 1013.1 |
| 20260510061006 | 8 | 136 | 0.0 | 1.6 | 0.00 | 0.00 | 0.00 | 91 | 1013.3 |
| 20260510060008 | 8 | 136 | 0.0 | 3.2 | 0.00 | 0.00 | 0.00 | 91 | 1013.3 |
| 20260510055006 | 8 | 136 | 0.0 | 1.6 | 0.00 | 0.00 | 0.00 | 91 | 1013.4 |
| 20260510054006 | 8 | 141 | 0.0 | 1.6 | 0.00 | 0.00 | 0.00 | 91 | 1013.4 |
| 20260510053008 | 8 | 139 | 0.0 | 1.6 | 0.00 | 0.00 | 0.00 | 91 | 1013.4 |
| 20260510052006 | 7 | 145 | 3.2 | 9.7 | 0.00 | 0.00 | 0.00 | 91 | 1013.5 |
| 20260510051006 | 7 | 322 | 0.0 | 4.8 | 0.00 | 0.00 | 0.00 | 91 | 1013.6 |
| 20260510050008 | 7 | 129 | 1.6 | 9.7 | 0.00 | 0.00 | 0.00 | 91 | 1013.5 |
| 20260510045006 | 7 | 122 | 3.2 | 9.7 | 0.00 | 0.00 | 0.00 | 91 | 1013.6 |
| 20260510044006 | 7 | 123 | 3.2 | 9.7 | 0.00 | 0.00 | 0.00 | 91 | 1013.6 |
| 20260510043008 | 7 | 108 | 1.6 | 4.8 | 0.00 | 0.00 | 0.00 | 91 | 1013.9 |
| 20260510042006 | 7 | 109 | 1.6 | 4.8 | 0.00 | 0.00 | 0.00 | 91 | 1014.0 |
| 20260510041005 | 7 | 115 | 0.0 | 4.8 | 0.00 | 0.00 | 0.00 | 91 | 1014.1 |
| 20260510040008 | 7 | 106 | 0.0 | 3.2 | 0.00 | 0.00 | 0.00 | 90 | 1014.2 |
| 20260510035005 | 7 | 109 | 1.6 | 4.8 | 0.00 | 0.00 | 0.00 | 90 | 1014.4 |
| 20260510034005 | 7 | 109 | 0.0 | 3.2 | 0.00 | 0.00 | 0.00 | 90 | 1014.5 |
| 20260510033008 | 7 | 100 | 0.0 | 4.8 | 0.00 | 0.00 | 0.00 | 90 | 1014.6 |
| 20260510032006 | 7 | 101 | 0.0 | 8.0 | 0.00 | 0.00 | 0.00 | 90 | 1014.5 |
| 20260510031006 | 6 | 106 | 1.6 | 8.0 | 0.00 | 0.00 | 0.00 | 90 | 1014.6 |
| 20260510030008 | 6 | 106 | 3.2 | 9.7 | 0.00 | 0.00 | 0.00 | 89 | 1014.6 |
| 20260510025005 | 6 | 122 | 1.6 | 8.0 | 0.00 | 0.00 | 0.00 | 89 | 1014.6 |
| 20260510024006 | 6 | 114 | 1.6 | 9.7 | 0.00 | 0.00 | 0.00 | 88 | 1014.7 |
| 20260510023008 | 6 | 118 | 3.2 | 11.3 | 0.00 | 0.00 | 0.00 | 87 | 1014.9 |
| 20260510022006 | 6 | 115 | 3.2 | 11.3 | 0.00 | 0.00 | 0.00 | 87 | 1015.1 |
| 20260510021006 | 6 | 118 | 4.8 | 9.7 | 0.00 | 0.00 | 0.00 | 86 | 1015.1 |
| 20260510020009 | 6 | 119 | 1.6 | 11.3 | 0.00 | 0.00 | 0.00 | 86 | 1015.2 |
| 20260510015006 | 6 | 117 | 6.4 | 14.5 | 0.00 | 0.00 | 0.00 | 85 | 1015.2 |
| 20260510014006 | 6 | 116 | 4.8 | 14.5 | 0.00 | 0.00 | 0.00 | 84 | 1015.2 |
| 20260510013008 | 6 | 111 | 3.2 | 8.0 | 0.00 | 0.00 | 0.00 | 84 | 1015.5 |
| 20260510012006 | 6 | 113 | 4.8 | 11.3 | 0.00 | 0.00 | 0.00 | 84 | 1015.6 |
| 20260510011006 | 6 | 110 | 3.2 | 11.3 | 0.00 | 0.00 | 0.00 | 85 | 1015.6 |
| 20260510010009 | 5 | 104 | 3.2 | 11.3 | 0.00 | 0.00 | 0.00 | 85 | 1015.7 |
| 20260510005006 | 5 | 99 | 3.2 | 8.0 | 0.00 | 0.00 | 0.00 | 85 | 1016.0 |
| 20260510004006 | 5 | 104 | 1.6 | 9.7 | 0.00 | 0.00 | 0.00 | 85 | 1016.2 |
| 20260510003009 | 5 | 103 | 1.6 | 4.8 | 0.00 | 0.00 | 0.00 | 85 | 1016.4 |
| 20260510002006 | 5 | 95 | 0.0 | 4.8 | 0.00 | 0.00 | 0.00 | 85 | 1016.7 |
| 20260510001006 | 5 | 103 | 0.0 | 4.8 | 0.00 | 0.00 | 0.00 | 84 | 1016.8 |
| 20260510000008 | 5 | 98 | 0.0 | 3.2 | 0.00 | 0.00 | 0.00 | 83 | 1016.9 |
| 20260509235006 | 5 | 115 | 0.0 | 1.6 | 0.00 | 0.00 | 0.00 | 82 | 1017.0 |
| 20260509234006 | 5 | 116 | 0.0 | 0.0 | 0.00 | 0.00 | 0.00 | 80 | 1017.2 |
| 20260509233008 | 5 | 132 | 0.0 | 0.0 | 0.00 | 0.00 | 0.00 | 80 | 1017.3 |
| 20260509232005 | 5 | 134 | 0.0 | 1.6 | 0.00 | 0.00 | 0.00 | 80 | 1017.3 |
| 20260509231005 | 5 | 134 | 0.0 | 1.6 | 0.00 | 0.00 | 0.00 | 80 | 1017.5 |
| 20260509230008 | 5 | 134 | 0.0 | 0.0 | 0.00 | 0.00 | 0.00 | 81 | 1017.7 |
| 20260509225006 | 5 | 134 | 0.0 | 0.0 | 0.00 | 0.00 | 0.00 | 80 | 1017.8 |
| 20260509224005 | 6 | 134 | 0.0 | 0.0 | 0.00 | 0.00 | 0.00 | 79 | 1017.8 |
| 20260509223008 | 6 | 134 | 0.0 | 0.0 | 0.00 | 0.00 | 0.00 | 79 | 1017.8 |
| 20260509222006 | 6 | 134 | 0.0 | 0.0 | 0.00 | 0.00 | 0.00 | 78 | 1017.8 |
| 20260509221006 | 6 | 134 | 0.0 | 0.0 | 0.00 | 0.00 | 0.00 | 77 | 1017.8 |
| 20260509220009 | 6 | 134 | 0.0 | 0.0 | 0.00 | 0.00 | 0.00 | 77 | 1017.9 |
| 20260509215006 | 6 | 134 | 0.0 | 0.0 | 0.00 | 0.00 | 0.00 | 76 | 1017.9 |
| 20260509214006 | 7 | 134 | 0.0 | 0.0 | 0.00 | 0.00 | 0.00 | 77 | 1018.1 |
| 20260509213008 | 7 | 134 | 0.0 | 0.0 | 0.00 | 0.00 | 0.00 | 77 | 1018.1 |
| 20260509212006 | 7 | 134 | 0.0 | 1.6 | 0.00 | 0.00 | 0.00 | 77 | 1018.1 |
| 20260509211006 | 7 | 134 | 0.0 | 1.6 | 0.00 | 0.00 | 0.00 | 76 | 1018.1 |
| 20260509210008 | 7 | 134 | 0.0 | 1.6 | 0.00 | 0.00 | 0.00 | 75 | 1018.2 |
| 20260509205005 | 7 | 134 | 0.0 | 1.6 | 0.00 | 0.00 | 0.00 | 74 | 1018.3 |
| 20260509204006 | 8 | 134 | 0.0 | 3.2 | 0.00 | 0.00 | 0.00 | 74 | 1018.3 |
| 20260509203008 | 8 | 133 | 0.0 | 4.8 | 0.00 | 0.00 | 0.00 | 74 | 1018.3 |
| 20260509202006 | 8 | 129 | 0.0 | 4.8 | 0.00 | 0.00 | 0.00 | 73 | 1018.3 |
| 20260509201005 | 8 | 120 | 0.0 | 4.8 | 0.00 | 0.00 | 0.00 | 71 | 1018.3 |
| 20260509200008 | 9 | 134 | 1.6 | 4.8 | 0.00 | 0.00 | 0.00 | 70 | 1018.4 |
| 20260509195006 | 9 | 139 | 0.0 | 8.0 | 0.00 | 0.00 | 0.00 | 68 | 1018.4 |
| 20260509194005 | 9 | 123 | 1.6 | 9.7 | 0.00 | 0.00 | 0.00 | 66 | 1018.3 |
| 20260509193008 | 10 | 130 | 1.6 | 9.7 | 0.00 | 0.00 | 0.00 | 63 | 1018.3 |
| 20260509192005 | 10 | 139 | 4.8 | 11.3 | 0.00 | 0.00 | 0.00 | 61 | 1018.3 |
| 20260509191006 | 10 | 136 | 3.2 | 16.1 | 0.00 | 0.00 | 0.00 | 60 | 1018.3 |
| 20260509190019 | 11 | 135 | 4.8 | 16.1 | 0.00 | 0.00 | 0.00 | 59 | 1018.2 |
| 20260509185005 | 11 | 130 | 3.2 | 11.3 | 0.00 | 0.00 | 0.00 | 58 | 1018.1 |
| 20260509184006 | 11 | 127 | 3.2 | 12.9 | 0.00 | 0.00 | 0.00 | 56 | 1017.9 |
| 20260509183008 | 12 | 128 | 6.4 | 19.3 | 0.00 | 0.00 | 0.00 | 53 | 1017.9 |
| 20260509182006 | 12 | 125 | 3.2 | 19.3 | 0.00 | 0.00 | 0.00 | 50 | 1017.9 |
| 20260509181006 | 13 | 146 | 8.0 | 20.9 | 0.00 | 0.00 | 0.00 | 46 | 1017.9 |
| 20260509180009 | 13 | 144 | 4.8 | 19.3 | 0.00 | 0.00 | 0.00 | 45 | 1018.0 |
| 20260509175008 | 13 | 140 | 8.0 | 19.3 | 0.00 | 0.00 | 0.00 | 44 | 1018.0 |
| 20260509174006 | 13 | 151 | 6.4 | 19.3 | 0.00 | 0.00 | 0.00 | 43 | 1018.0 |
| 20260509173008 | 13 | 134 | 8.0 | 19.3 | 0.00 | 0.00 | 0.00 | 42 | 1018.1 |
| 20260509172006 | 13 | 142 | 3.2 | 19.3 | 0.00 | 0.00 | 0.00 | 43 | 1018.2 |
| 20260509171006 | 13 | 149 | 8.0 | 20.9 | 0.00 | 0.00 | 0.00 | 43 | 1018.2 |
| 20260509170009 | 13 | 151 | 12.9 | 24.1 | 0.00 | 0.00 | 0.00 | 41 | 1018.2 |
| 20260509165006 | 13 | 150 | 11.3 | 19.3 | 0.00 | 0.00 | 0.00 | 42 | 1018.3 |
| 20260509164005 | 14 | 146 | 9.7 | 24.1 | 0.00 | 0.00 | 0.00 | 41 | 1018.3 |
| 20260509163009 | 14 | 132 | 11.3 | 24.1 | 0.00 | 0.00 | 0.00 | 41 | 1018.3 |
| 20260509162006 | 14 | 119 | 14.5 | 25.7 | 0.00 | 0.00 | 0.00 | 40 | 1018.3 |
| 20260509161005 | 15 | 152 | 9.7 | 22.5 | 0.00 | 0.00 | 0.00 | 41 | 1018.4 |
| 20260509160008 | 15 | 133 | 3.2 | 20.9 | 0.00 | 0.00 | 0.00 | 42 | 1018.5 |
| 20260509155006 | 15 | 133 | 11.3 | 20.9 | 0.00 | 0.00 | 0.00 | 39 | 1018.8 |
| 20260509154006 | 15 | 147 | 12.9 | 24.1 | 0.00 | 0.00 | 0.00 | 38 | 1018.8 |
| 20260509153009 | 16 | 143 | 12.9 | 20.9 | 0.00 | 0.00 | 0.00 | 39 | 1019.0 |
| 20260509152006 | 16 | 138 | 4.8 | 24.1 | 0.00 | 0.00 | 0.00 | 39 | 1018.9 |
| 20260509151006 | 16 | 129 | 8.0 | 20.9 | 0.00 | 0.00 | 0.00 | 39 | 1019.0 |
| 20260509150008 | 16 | 129 | 12.9 | 22.5 | 0.00 | 0.00 | 0.00 | 36 | 1019.3 |
| 20260509145005 | 16 | 128 | 6.4 | 22.5 | 0.00 | 0.00 | 0.00 | 37 | 1019.3 |
| 20260509144006 | 17 | 130 | 11.3 | 22.5 | 0.00 | 0.00 | 0.00 | 37 | 1019.3 |
| 20260509143009 | 17 | 142 | 14.5 | 20.9 | 0.00 | 0.00 | 0.00 | 36 | 1019.3 |
| 20260509142006 | 17 | 156 | 9.7 | 19.3 | 0.00 | 0.00 | 0.00 | 36 | 1019.4 |
| 20260509141006 | 17 | 144 | 12.9 | 19.3 | 0.00 | 0.00 | 0.00 | 37 | 1019.5 |
| 20260509140008 | 17 | 123 | 9.7 | 19.3 | 0.00 | 0.00 | 0.00 | 34 | 1019.7 |
| 20260509135006 | 17 | 166 | 9.7 | 22.5 | 0.00 | 0.00 | 0.00 | 35 | 1019.8 |
| 20260509134005 | 17 | 144 | 4.8 | 27.4 | 0.00 | 0.00 | 0.00 | 34 | 1019.9 |
| 20260509133008 | 17 | 139 | 8.0 | 20.9 | 0.00 | 0.00 | 0.00 | 34 | 1020.0 |
| 20260509132006 | 17 | 124 | 6.4 | 20.9 | 0.00 | 0.00 | 0.00 | 33 | 1020.2 |
| 20260509131006 | 17 | 73 | 3.2 | 22.5 | 0.00 | 0.00 | 0.00 | 35 | 1020.3 |
| 20260509130008 | 17 | 161 | 3.2 | 22.5 | 0.00 | 0.00 | 0.00 | 34 | 1020.4 |
| 20260509125006 | 17 | 175 | 11.3 | 19.3 | 0.00 | 0.00 | 0.00 | 36 | 1020.4 |
| 20260509124006 | 17 | 142 | 8.0 | 19.3 | 0.00 | 0.00 | 0.00 | 36 | 1020.4 |
| 20260509123009 | 17 | 187 | 3.2 | 11.3 | 0.00 | 0.00 | 0.00 | 36 | 1020.5 |
| 20260509122006 | 17 | 184 | 9.7 | 22.5 | 0.00 | 0.00 | 0.00 | 36 | 1020.7 |
| 20260509121005 | 17 | 207 | 1.6 | 11.3 | 0.00 | 0.00 | 0.00 | 38 | 1020.8 |
| 20260509120008 | 17 | 337 | 3.2 | 11.3 | 0.00 | 0.00 | 0.00 | 36 | 1020.9 |
| 20260509115006 | 17 | 151 | 4.8 | 16.1 | 0.00 | 0.00 | 0.00 | 35 | 1021.0 |
| 20260509114006 | 17 | 126 | 3.2 | 11.3 | 0.00 | 0.00 | 0.00 | 34 | 1021.0 |
| 20260509113009 | 16 | 154 | 8.0 | 12.9 | 0.00 | 0.00 | 0.00 | 38 | 1021.0 |
| 20260509112006 | 16 | 92 | 1.6 | 8.0 | 0.00 | 0.00 | 0.00 | 35 | 1021.1 |
| 20260509111006 | 16 | 170 | 0.0 | 12.9 | 0.00 | 0.00 | 0.00 | 35 | 1021.2 |
| 20260509110008 | 16 | 110 | 1.6 | 8.0 | 0.00 | 0.00 | 0.00 | 35 | 1021.3 |
| 20260509105006 | 15 | 140 | 3.2 | 8.0 | 0.00 | 0.00 | 0.00 | 36 | 1021.4 |
| 20260509104005 | 16 | 54 | 3.2 | 19.3 | 0.00 | 0.00 | 0.00 | 34 | 1021.4 |